Regional Weather Roundup
Issued by NWS

Home | Current Version | Previous Version | Text Only | Print | Product List | Glossary On
Versions: 1 2 3 4 5 6 7 8 9 10 11 12 13 14 15 16 17 18 19 20 21 22 23 24 25 26 27 28 29 30 31 32 33 34 35 36 37 38 39 40 41 42 43 44 45 46 47 48 49 50
000
ASUS43 KLMK 290210
RWRKY
KENTUCKY REGIONAL WEATHER ROUNDUP
NATIONAL WEATHER SERVICE LOUISVILLE KY
1000 PM EDT THU MAY 28 2020

NOTE "FAIR" INDICATES FEW OR NO CLOUDS BELOW 12,000 FEET
WITH NO SIGNIFICANT WEATHER AND/OR OBSTRUCTIONS TO VISIBILITY.

KYZ001>023-026-027-061>063-070>075-290300-
WESTERN AND SOUTH CENTRAL KENTUCKY

CITY           SKY/WX    TMP DP  RH WIND       PRES   REMARKS
PADUCAH        CLOUDY    73  62  68 SW3       29.92R
HENDERSON      PTCLDY    71  65  81 S3        29.92R
OWENSBORO      CLOUDY    74  65  73 SW5       29.93R
HOPKINSVILLE   CLOUDY    70  65  86 S10       29.95R
BOWLING GREEN  CLOUDY    73  66  78 S9        29.96R
GLASGOW        MOCLDY    73  57  57 S3        29.95R
$$

KYZ024-025-028>034-038-045-046-053-290300-
NORTH CENTRAL KENTUCKY

CITY           SKY/WX    TMP DP  RH WIND       PRES   REMARKS
LOUISVILLE/SDF MOCLDY    77  65  66 S7        29.93R
LOUISVILLE/LOU PTCLDY    76  63  64 S8        29.93R
FORT KNOX      CLOUDY    72  66  82 CALM      29.94R
$$

KYZ035>037-039>044-047>052-055>060-089>105-290300-
NORTHEAST KENTUCKY

CITY           SKY/WX    TMP DP  RH WIND       PRES   REMARKS
LEXINGTON      PTCLDY    70  62  76 S6        29.96R
COVINGTON      CLOUDY    75  62  64 S7        29.93R
FRANKFORT      PTCLDY    73  63  70 S6        29.94R
$$

KYZ054-064>069-076>088-106>120-290300-
SOUTHEAST KENTUCKY

CITY           SKY/WX    TMP DP  RH WIND       PRES   REMARKS
JACKSON        PTCLDY    71  70  96 CALM      30.00R
LONDON         PTCLDY    66  63  90 SE3       30.00F
SOMERSET       PTCLDY    64  64 100 CALM      30.00S
MIDDLESBORO    PTCLDY    71  67  88 CALM      30.02R
MONTICELLO     CLEAR     67  67 100 NW8       30.01R
$$




USA.gov is the U.S. government's official web portal to all federal, state and local government web resources and services.